ACI140 NWWW-YSSY

Flight info

Callsign ACI140
Flight time 2h 52m
Altitude 40000
Route POXAK3E POXAK B580 MISLY DCT RIKNI N774 MARLN
Aircraft B772/H-SDE2E3FGHIJ5LORVWXY/LB1D1

Departure

Time 2026-04-16 03:47
Airport La Tontouta International Airport (NWWW)

Arrival

Time 2026-04-16 06:39
Airport Sydney Kingsford Smith International Airport (YSSY)
Time Latitude Longitude Altitude Speed Heading
2026-04-16 03:10 -22.01333 166.21589 29 ft 0 kts 121°
2026-04-16 03:36 -22.01324 166.21571 28 ft 4 kts 117°
2026-04-16 03:36 -22.01312 166.21546 27 ft 4 kts 123°
2026-04-16 03:36 -22.01295 166.21524 26 ft 4 kts 135°
2026-04-16 03:37 -22.01275 166.21504 28 ft 4 kts 139°
2026-04-16 03:37 -22.01271 166.21499 28 ft 0 kts 140°
2026-04-16 03:40 -22.01314 166.21501 28 ft 15 kts 203°
2026-04-16 03:41 -22.01399 166.21439 28 ft 9 kts 213°
2026-04-16 03:41 -22.01406 166.21434 28 ft 0 kts 212°
2026-04-16 03:42 -22.01417 166.21426 28 ft 7 kts 212°
2026-04-16 03:42 -22.01463 166.21343 28 ft 20 kts 275°
2026-04-16 03:42 -22.01376 166.21165 27 ft 31 kts 301°
2026-04-16 03:43 -22.01267 166.20972 27 ft 30 kts 301°
2026-04-16 03:43 -22.01159 166.20780 29 ft 30 kts 301°
2026-04-16 03:43 -22.01052 166.20589 30 ft 30 kts 301°
2026-04-16 03:43 -22.00943 166.20396 23 ft 30 kts 301°
2026-04-16 03:44 -22.00834 166.20203 21 ft 30 kts 301°
2026-04-16 03:44 -22.00721 166.20048 18 ft 16 kts 317°
2026-04-16 03:44 -22.00679 166.19986 18 ft 5 kts 240°
2026-04-16 03:44 -22.00714 166.19991 18 ft 8 kts 146°
2026-04-16 03:45 -22.00744 166.20042 19 ft 2 kts 121°
2026-04-16 03:46 -22.00755 166.20063 19 ft 15 kts 121°
2026-04-16 03:46 -22.00905 166.20330 25 ft 79 kts 121°
2026-04-16 03:46 -22.01325 166.21081 41 ft 149 kts 122°
2026-04-16 03:47 -22.01893 166.22051 668 ft 159 kts 126°
2026-04-16 03:47 -22.02513 166.23102 1533 ft 170 kts 122°
2026-04-16 03:47 -22.03135 166.24162 2426 ft 172 kts 124°
2026-04-16 03:47 -22.03828 166.25336 2768 ft 199 kts 124°
2026-04-16 03:48 -22.04874 166.26419 3053 ft 222 kts 150°
2026-04-16 03:48 -22.06389 166.27047 3423 ft 244 kts 167°
2026-04-16 03:48 -22.08156 166.27056 3846 ft 264 kts 193°
2026-04-16 03:48 -22.09810 166.26200 4524 ft 271 kts 220°
2026-04-16 03:49 -22.10951 166.24578 5257 ft 272 kts 249°
2026-04-16 03:49 -22.11573 166.22650 5946 ft 274 kts 253°
2026-04-16 03:49 -22.12173 166.20729 6777 ft 273 kts 252°
2026-04-16 03:49 -22.12773 166.18791 7558 ft 273 kts 253°
2026-04-16 03:50 -22.13376 166.16822 8213 ft 278 kts 252°
2026-04-16 03:50 -22.13986 166.14830 8929 ft 280 kts 252°
2026-04-16 03:50 -22.14598 166.12835 9716 ft 279 kts 253°
2026-04-16 03:50 -22.15214 166.10822 10300 ft 284 kts 253°
2026-04-16 03:51 -22.15852 166.08741 10451 ft 305 kts 252°
2026-04-16 03:51 -22.16543 166.06488 10596 ft 328 kts 252°
2026-04-16 03:51 -22.17352 166.04111 10764 ft 344 kts 244°
2026-04-16 03:51 -22.18763 166.01977 11148 ft 362 kts 228°
2026-04-16 03:52 -22.20612 166.00066 11850 ft 368 kts 224°
2026-04-16 03:52 -22.22465 165.98170 12940 ft 367 kts 225°
2026-04-16 03:52 -22.24312 165.96249 13913 ft 367 kts 225°
2026-04-16 03:52 -22.26126 165.94352 14758 ft 369 kts 225°
2026-04-16 03:53 -22.27989 165.92400 15446 ft 374 kts 226°
2026-04-16 03:53 -22.29871 165.90423 16109 ft 381 kts 226°
2026-04-16 03:53 -22.31768 165.88430 16700 ft 387 kts 226°
2026-04-16 03:53 -22.33720 165.86377 17328 ft 393 kts 226°
2026-04-16 03:54 -22.35692 165.84302 18031 ft 396 kts 226°
2026-04-16 03:54 -22.37658 165.82234 18672 ft 398 kts 226°
2026-04-16 03:54 -22.39642 165.80146 19315 ft 399 kts 226°
2026-04-16 03:54 -22.41636 165.78046 19956 ft 399 kts 226°
2026-04-16 03:55 -22.43640 165.75935 20546 ft 401 kts 226°
2026-04-16 03:55 -22.45628 165.73839 21106 ft 403 kts 226°
2026-04-16 03:55 -22.47646 165.71711 21706 ft 404 kts 227°
2026-04-16 03:55 -22.49665 165.69581 22341 ft 404 kts 226°
2026-04-16 03:56 -22.51667 165.67468 22886 ft 406 kts 226°
2026-04-16 03:56 -22.53696 165.65325 23412 ft 408 kts 226°
2026-04-16 03:56 -22.55743 165.63161 23863 ft 410 kts 227°
2026-04-16 03:56 -22.57771 165.61017 24258 ft 413 kts 227°
2026-04-16 03:57 -22.59842 165.58826 24632 ft 416 kts 227°
2026-04-16 03:57 -22.61922 165.56625 24976 ft 419 kts 227°
2026-04-16 03:57 -22.64017 165.54407 25351 ft 422 kts 227°
2026-04-16 03:57 -22.66104 165.52197 25744 ft 423 kts 227°
2026-04-16 03:58 -22.68222 165.49954 26138 ft 425 kts 227°
2026-04-16 03:58 -22.70329 165.47721 26509 ft 428 kts 228°
2026-04-16 03:58 -22.72468 165.45452 26878 ft 430 kts 228°
2026-04-16 03:58 -22.74616 165.43174 27244 ft 432 kts 228°
2026-04-16 03:59 -22.76746 165.40914 27700 ft 432 kts 228°
2026-04-16 03:59 -22.78916 165.38611 28147 ft 433 kts 229°
2026-04-16 03:59 -22.81073 165.36319 28501 ft 435 kts 229°
2026-04-16 03:59 -22.83221 165.34035 28787 ft 438 kts 229°
2026-04-16 04:00 -22.85406 165.31711 29105 ft 441 kts 229°
2026-04-16 04:00 -22.87611 165.29365 29399 ft 443 kts 229°
2026-04-16 04:00 -22.89821 165.27012 29672 ft 445 kts 229°
2026-04-16 04:00 -22.92007 165.24684 29936 ft 447 kts 229°
2026-04-16 04:01 -22.94235 165.22311 30190 ft 449 kts 229°
2026-04-16 04:01 -22.96472 165.19927 30408 ft 450 kts 229°
2026-04-16 04:01 -22.98712 165.17540 30644 ft 450 kts 229°
2026-04-16 04:01 -23.00918 165.15188 30924 ft 450 kts 229°
2026-04-16 04:02 -23.03151 165.12806 31277 ft 447 kts 229°
2026-04-16 04:02 -23.05363 165.10446 31828 ft 441 kts 228°
2026-04-16 04:02 -23.07536 165.08126 32364 ft 435 kts 228°
2026-04-16 04:02 -23.09674 165.05842 32689 ft 435 kts 228°
2026-04-16 04:03 -23.11839 165.03524 32959 ft 436 kts 228°
2026-04-16 04:03 -23.13979 165.01232 33312 ft 434 kts 228°
2026-04-16 04:03 -23.16125 164.98934 33756 ft 431 kts 227°
2026-04-16 04:03 -23.18264 164.96643 34189 ft 428 kts 227°
2026-04-16 04:04 -23.20386 164.94369 34500 ft 427 kts 227°
2026-04-16 04:04 -23.22485 164.92117 34747 ft 428 kts 227°
2026-04-16 04:04 -23.24620 164.89827 34996 ft 428 kts 227°
2026-04-16 04:04 -23.26744 164.87547 35282 ft 428 kts 227°
2026-04-16 04:05 -23.28837 164.85300 35564 ft 427 kts 227°
2026-04-16 04:05 -23.30966 164.83013 35854 ft 427 kts 227°
2026-04-16 04:05 -23.33055 164.80768 36172 ft 426 kts 227°
2026-04-16 04:05 -23.35167 164.78497 36492 ft 425 kts 227°
2026-04-16 04:06 -23.37272 164.76232 36744 ft 425 kts 227°
2026-04-16 04:06 -23.39359 164.73985 36961 ft 426 kts 227°
2026-04-16 04:06 -23.41467 164.71716 37207 ft 426 kts 227°
2026-04-16 04:06 -23.43585 164.69435 37408 ft 426 kts 227°
2026-04-16 04:07 -23.45696 164.67160 37632 ft 427 kts 227°
2026-04-16 04:07 -23.49893 164.62636 38136 ft 426 kts 226°
2026-04-16 04:07 -23.52002 164.60360 38363 ft 426 kts 226°
2026-04-16 04:08 -23.54117 164.58076 38585 ft 426 kts 226°
2026-04-16 04:08 -23.56202 164.55823 38799 ft 425 kts 226°
2026-04-16 04:08 -23.58313 164.53541 38988 ft 425 kts 226°
2026-04-16 04:08 -23.60416 164.51267 39202 ft 424 kts 227°
2026-04-16 04:09 -23.62486 164.49026 39401 ft 424 kts 227°
2026-04-16 04:09 -23.64582 164.46758 39578 ft 423 kts 227°
2026-04-16 04:09 -23.66682 164.44483 39740 ft 423 kts 227°
2026-04-16 04:09 -23.68770 164.42220 39911 ft 423 kts 227°
2026-04-16 04:10 -23.72942 164.37695 40043 ft 426 kts 227°
2026-04-16 04:10 -23.77164 164.33112 40062 ft 427 kts 227°
2026-04-16 04:11 -23.81369 164.28545 40059 ft 423 kts 227°
2026-04-16 04:11 -23.85509 164.24044 40065 ft 420 kts 227°
2026-04-16 04:12 -23.89646 164.19540 40069 ft 418 kts 227°
2026-04-16 04:12 -23.93748 164.15070 40075 ft 417 kts 227°
2026-04-16 04:13 -23.97849 164.10596 40074 ft 418 kts 227°
2026-04-16 04:13 -24.01970 164.06096 40073 ft 420 kts 227°
2026-04-16 04:14 -24.06105 164.01577 40076 ft 422 kts 227°
2026-04-16 04:14 -24.10269 163.97022 40071 ft 424 kts 227°
2026-04-16 04:15 -24.14461 163.92433 40094 ft 425 kts 227°
2026-04-16 04:15 -24.18633 163.87861 40086 ft 426 kts 227°
2026-04-16 04:16 -24.22134 163.84021 40081 ft 426 kts 227°
2026-04-16 04:16 -24.26311 163.79436 40077 ft 425 kts 227°
2026-04-16 04:17 -24.30466 163.74870 40078 ft 424 kts 227°
2026-04-16 04:17 -24.34635 163.70283 40079 ft 423 kts 227°
2026-04-16 04:18 -24.38800 163.65697 40080 ft 423 kts 227°
2026-04-16 04:18 -24.42923 163.61151 40100 ft 422 kts 227°
2026-04-16 04:19 -24.47079 163.56566 40086 ft 422 kts 227°
2026-04-16 04:19 -24.51194 163.52021 40084 ft 422 kts 228°
2026-04-16 04:20 -24.55317 163.47463 40084 ft 421 kts 228°
2026-04-16 04:20 -24.59451 163.42887 40087 ft 421 kts 228°
2026-04-16 04:21 -24.63594 163.38298 40087 ft 421 kts 228°
2026-04-16 04:21 -24.67707 163.33737 40087 ft 421 kts 228°
2026-04-16 04:22 -24.71819 163.29173 40088 ft 422 kts 228°
2026-04-16 04:22 -24.75953 163.24580 40089 ft 421 kts 228°
2026-04-16 04:23 -24.80082 163.19987 40090 ft 421 kts 228°
2026-04-16 04:23 -24.84199 163.15403 40090 ft 422 kts 228°
2026-04-16 04:24 -24.88309 163.10822 40090 ft 422 kts 228°
2026-04-16 04:24 -24.92447 163.06206 40092 ft 422 kts 228°
2026-04-16 04:25 -24.96547 163.01626 40115 ft 422 kts 228°
2026-04-16 04:25 -25.00681 162.97004 40100 ft 422 kts 228°
2026-04-16 04:26 -25.04802 162.92386 40086 ft 422 kts 228°
2026-04-16 04:26 -25.08898 162.87789 40096 ft 421 kts 228°
2026-04-16 04:27 -25.13000 162.83182 40095 ft 421 kts 228°
2026-04-16 04:27 -25.17116 162.78554 40103 ft 421 kts 228°
2026-04-16 04:28 -25.21202 162.73955 40105 ft 421 kts 228°
2026-04-16 04:28 -25.25313 162.69323 40111 ft 421 kts 229°
2026-04-16 04:29 -25.29405 162.64707 40098 ft 421 kts 229°
2026-04-16 04:29 -25.33503 162.60081 40090 ft 420 kts 229°
2026-04-16 04:30 -25.37586 162.55466 40106 ft 420 kts 229°
2026-04-16 04:30 -25.41656 162.50861 40103 ft 420 kts 229°
2026-04-16 04:31 -25.45754 162.46219 40110 ft 420 kts 229°
2026-04-16 04:31 -25.49825 162.41604 40129 ft 421 kts 229°
2026-04-16 04:32 -25.53924 162.36953 40112 ft 420 kts 229°
2026-04-16 04:32 -25.57993 162.32330 40111 ft 420 kts 229°
2026-04-16 04:33 -25.62061 162.27703 40109 ft 420 kts 229°
2026-04-16 04:33 -25.66143 162.23056 40104 ft 420 kts 229°
2026-04-16 04:34 -25.70195 162.18438 40104 ft 420 kts 229°
2026-04-16 04:34 -25.74282 162.13776 40118 ft 420 kts 229°
2026-04-16 04:35 -25.78346 162.09135 40121 ft 420 kts 229°
2026-04-16 04:35 -25.82429 162.04467 40115 ft 420 kts 229°
2026-04-16 04:36 -25.86489 161.99821 40114 ft 420 kts 229°
2026-04-16 04:36 -25.90546 161.95174 40119 ft 419 kts 229°
2026-04-16 04:37 -25.94621 161.90500 40119 ft 419 kts 229°
2026-04-16 04:37 -25.98647 161.85878 40120 ft 419 kts 229°
2026-04-16 04:38 -26.02712 161.81206 40132 ft 419 kts 229°
2026-04-16 04:38 -26.06763 161.76546 40124 ft 419 kts 229°
2026-04-16 04:39 -26.10801 161.71895 40125 ft 418 kts 229°
2026-04-16 04:39 -26.14823 161.67258 40127 ft 418 kts 229°
2026-04-16 04:40 -26.18871 161.62587 40124 ft 418 kts 229°
2026-04-16 04:40 -26.22885 161.57949 40125 ft 418 kts 229°
2026-04-16 04:41 -26.26934 161.53266 40141 ft 418 kts 230°
2026-04-16 04:41 -26.30957 161.48607 40124 ft 418 kts 230°
2026-04-16 04:42 -26.34983 161.43941 40125 ft 418 kts 230°
2026-04-16 04:42 -26.39022 161.39254 40127 ft 418 kts 230°
2026-04-16 04:43 -26.43037 161.34591 40128 ft 418 kts 230°
2026-04-16 04:43 -26.47079 161.29891 40127 ft 418 kts 230°
2026-04-16 04:44 -26.51089 161.25223 40133 ft 418 kts 230°
2026-04-16 04:44 -26.55112 161.20535 40117 ft 418 kts 230°
2026-04-16 04:45 -26.59153 161.15820 40130 ft 419 kts 230°
2026-04-16 04:45 -26.63169 161.11131 40124 ft 419 kts 230°
2026-04-16 04:46 -26.67189 161.06431 40130 ft 419 kts 230°
2026-04-16 04:46 -26.71236 161.01694 40124 ft 419 kts 230°
2026-04-16 04:47 -26.75256 160.96984 40152 ft 419 kts 230°
2026-04-16 04:47 -26.79272 160.92273 40134 ft 419 kts 230°
2026-04-16 04:48 -26.83311 160.87530 40111 ft 419 kts 230°
2026-04-16 04:48 -26.87313 160.82826 40126 ft 418 kts 230°
2026-04-16 04:49 -26.91336 160.78091 40131 ft 418 kts 230°
2026-04-16 04:49 -26.95327 160.73389 40132 ft 418 kts 230°
2026-04-16 04:50 -26.99346 160.68648 40133 ft 418 kts 230°
2026-04-16 04:50 -27.03340 160.63933 40140 ft 418 kts 230°
2026-04-16 04:51 -27.07357 160.59185 40136 ft 418 kts 230°
2026-04-16 04:51 -27.11368 160.54438 40137 ft 418 kts 230°
2026-04-16 04:52 -27.15342 160.49731 40132 ft 417 kts 230°
2026-04-16 04:52 -27.19340 160.44988 40139 ft 417 kts 230°
2026-04-16 04:53 -27.23315 160.40268 40141 ft 417 kts 230°
2026-04-16 04:53 -27.27307 160.35523 40148 ft 418 kts 231°
2026-04-16 04:54 -27.31287 160.30786 40143 ft 418 kts 231°
2026-04-16 04:54 -27.35292 160.26015 40141 ft 418 kts 231°
2026-04-16 04:55 -27.39263 160.21280 40141 ft 417 kts 231°
2026-04-16 04:55 -27.43254 160.16514 40136 ft 417 kts 231°
2026-04-16 04:56 -27.47221 160.11773 40142 ft 417 kts 231°
2026-04-16 04:56 -27.51204 160.07006 40149 ft 417 kts 231°
2026-04-16 04:57 -27.55160 160.02266 40149 ft 417 kts 231°
2026-04-16 04:57 -27.59149 159.97482 40140 ft 416 kts 231°
2026-04-16 04:58 -27.63100 159.92738 40142 ft 416 kts 231°
2026-04-16 04:58 -27.67068 159.87968 40143 ft 416 kts 231°
2026-04-16 04:59 -27.71012 159.83220 40141 ft 415 kts 231°
2026-04-16 04:59 -27.74951 159.78476 40161 ft 416 kts 231°
2026-04-16 05:00 -27.78916 159.73692 40152 ft 415 kts 231°
2026-04-16 05:00 -27.82857 159.68933 40152 ft 415 kts 231°
2026-04-16 05:01 -27.86791 159.64176 40150 ft 415 kts 231°
2026-04-16 05:01 -27.90723 159.59417 40151 ft 415 kts 231°
2026-04-16 05:02 -27.93999 159.55447 40150 ft 415 kts 231°
2026-04-16 05:02 -27.98594 159.49874 40163 ft 415 kts 231°
2026-04-16 05:03 -28.01870 159.45896 40153 ft 415 kts 231°
2026-04-16 05:04 -28.07758 159.38735 40155 ft 414 kts 231°
2026-04-16 05:04 -28.11667 159.33973 40152 ft 414 kts 231°
2026-04-16 05:05 -28.15599 159.29179 40152 ft 414 kts 232°
2026-04-16 05:05 -28.19509 159.24404 40153 ft 413 kts 232°
2026-04-16 05:06 -28.23415 159.19631 40163 ft 413 kts 232°
2026-04-16 05:06 -28.27311 159.14865 40159 ft 413 kts 232°
2026-04-16 05:07 -28.31229 159.10068 40149 ft 412 kts 232°
2026-04-16 05:07 -28.35113 159.05304 40153 ft 412 kts 232°
2026-04-16 05:08 -28.39020 159.00506 40158 ft 412 kts 232°
2026-04-16 05:08 -28.42898 158.95738 40179 ft 412 kts 232°
2026-04-16 05:09 -28.46777 158.90963 40153 ft 412 kts 232°
2026-04-16 05:09 -28.50668 158.86168 40154 ft 412 kts 232°
2026-04-16 05:10 -28.54539 158.81393 40150 ft 411 kts 232°
2026-04-16 05:10 -28.58414 158.76606 40147 ft 411 kts 232°
2026-04-16 05:11 -28.62293 158.71808 40152 ft 411 kts 232°
2026-04-16 05:11 -28.66166 158.67013 40180 ft 411 kts 232°
2026-04-16 05:12 -28.70028 158.62225 40159 ft 411 kts 232°
2026-04-16 05:12 -28.73879 158.57446 40154 ft 411 kts 232°
2026-04-16 05:13 -28.77750 158.52637 40154 ft 411 kts 232°
2026-04-16 05:13 -28.81616 158.47827 40153 ft 410 kts 232°
2026-04-16 05:14 -28.85466 158.43032 40157 ft 410 kts 232°
2026-04-16 05:14 -28.89304 158.38246 40155 ft 410 kts 232°
2026-04-16 05:15 -28.93139 158.33458 40147 ft 410 kts 233°
2026-04-16 05:15 -28.96979 158.28658 40153 ft 410 kts 233°
2026-04-16 05:16 -29.00835 158.23833 40155 ft 410 kts 233°
2026-04-16 05:16 -29.04669 158.19030 40131 ft 410 kts 233°
2026-04-16 05:17 -29.08496 158.14230 40142 ft 409 kts 233°
2026-04-16 05:17 -29.12349 158.09390 40162 ft 410 kts 233°
2026-04-16 05:18 -29.16167 158.04590 40148 ft 409 kts 233°
2026-04-16 05:18 -29.19982 157.99788 40146 ft 409 kts 233°
2026-04-16 05:19 -29.23817 157.94954 40147 ft 408 kts 233°
2026-04-16 05:19 -29.27623 157.90151 40150 ft 408 kts 233°
2026-04-16 05:20 -29.31441 157.85328 40135 ft 408 kts 233°
2026-04-16 05:20 -29.35232 157.80533 40155 ft 408 kts 233°
2026-04-16 05:21 -29.39059 157.75685 40146 ft 407 kts 233°
2026-04-16 05:21 -29.42855 157.70872 40143 ft 407 kts 233°
2026-04-16 05:22 -29.46643 157.66063 40142 ft 407 kts 233°
2026-04-16 05:22 -29.50428 157.61252 40143 ft 407 kts 233°
2026-04-16 05:23 -29.54228 157.56416 40144 ft 406 kts 233°
2026-04-16 05:23 -29.57996 157.51616 40150 ft 406 kts 233°
2026-04-16 05:24 -29.61784 157.46783 40147 ft 406 kts 233°
2026-04-16 05:24 -29.65555 157.41968 40145 ft 406 kts 233°
2026-04-16 05:25 -29.69333 157.37136 40139 ft 405 kts 233°
2026-04-16 05:25 -29.73097 157.32317 40144 ft 405 kts 234°
2026-04-16 05:26 -29.76850 157.27507 40168 ft 405 kts 234°
2026-04-16 05:26 -29.80608 157.22684 40143 ft 405 kts 234°
2026-04-16 05:27 -29.84366 157.17856 40138 ft 404 kts 234°
2026-04-16 05:27 -29.88128 157.13014 40138 ft 404 kts 234°
2026-04-16 05:28 -29.91871 157.08193 40132 ft 404 kts 234°
2026-04-16 05:28 -29.95628 157.03348 40134 ft 404 kts 234°
2026-04-16 05:29 -29.99361 156.98527 40148 ft 404 kts 234°
2026-04-16 05:29 -30.03108 156.93683 40137 ft 404 kts 234°
2026-04-16 05:30 -30.06828 156.88868 40128 ft 403 kts 234°
2026-04-16 05:30 -30.10547 156.84048 40132 ft 402 kts 234°
2026-04-16 05:31 -30.14279 156.79206 40131 ft 402 kts 234°
2026-04-16 05:31 -30.17984 156.74392 40129 ft 402 kts 234°
2026-04-16 05:32 -30.21695 156.69564 40135 ft 402 kts 234°
2026-04-16 05:32 -30.25424 156.64708 40130 ft 402 kts 234°
2026-04-16 05:33 -30.29129 156.59876 40129 ft 401 kts 234°
2026-04-16 05:33 -30.32819 156.55059 40119 ft 401 kts 234°
2026-04-16 05:34 -30.36509 156.50235 40125 ft 401 kts 234°
2026-04-16 05:34 -30.40217 156.45380 40150 ft 401 kts 234°
2026-04-16 05:35 -30.43910 156.40541 40132 ft 401 kts 234°
2026-04-16 05:35 -30.47587 156.35717 40121 ft 401 kts 234°
2026-04-16 05:36 -30.51275 156.30871 40120 ft 401 kts 234°
2026-04-16 05:36 -30.54972 156.26009 40120 ft 400 kts 234°
2026-04-16 05:37 -30.58643 156.21174 40113 ft 400 kts 235°
2026-04-16 05:37 -30.62334 156.16306 40129 ft 401 kts 235°
2026-04-16 05:38 -30.66014 156.11445 40122 ft 401 kts 235°
2026-04-16 05:38 -30.69680 156.06599 40118 ft 400 kts 235°
2026-04-16 05:39 -30.73348 156.01743 40113 ft 400 kts 235°
2026-04-16 05:39 -30.77022 155.96873 40112 ft 400 kts 235°
2026-04-16 05:40 -30.80701 155.91992 40104 ft 400 kts 235°
2026-04-16 05:40 -30.84610 155.87386 40120 ft 407 kts 228°
2026-04-16 05:41 -30.88983 155.83145 40110 ft 408 kts 228°
2026-04-16 05:41 -30.93330 155.78927 40109 ft 407 kts 228°
2026-04-16 05:42 -30.97668 155.74699 40108 ft 406 kts 228°
2026-04-16 05:42 -31.01986 155.70478 40099 ft 406 kts 228°
2026-04-16 05:43 -31.06332 155.66221 40110 ft 406 kts 228°
2026-04-16 05:43 -31.10633 155.62003 40106 ft 405 kts 228°
2026-04-16 05:44 -31.14960 155.57754 40102 ft 405 kts 228°
2026-04-16 05:44 -31.19270 155.53517 40109 ft 406 kts 228°
2026-04-16 05:45 -31.23565 155.49289 40120 ft 406 kts 228°
2026-04-16 05:45 -31.27906 155.45010 40103 ft 406 kts 228°
2026-04-16 05:46 -31.32212 155.40762 40101 ft 406 kts 228°
2026-04-16 05:46 -31.36541 155.36486 40101 ft 406 kts 228°
2026-04-16 05:47 -31.40842 155.32232 40095 ft 405 kts 228°
2026-04-16 05:47 -31.45132 155.27982 40122 ft 405 kts 229°
2026-04-16 05:48 -31.49433 155.23717 40102 ft 405 kts 229°
2026-04-16 05:48 -31.53752 155.19428 40090 ft 405 kts 229°
2026-04-16 05:49 -31.58042 155.15164 40092 ft 404 kts 229°
2026-04-16 05:49 -31.62325 155.10901 40090 ft 404 kts 229°
2026-04-16 05:50 -31.66590 155.06650 40114 ft 404 kts 229°
2026-04-16 05:50 -31.70161 155.03087 40098 ft 404 kts 229°
2026-04-16 05:51 -31.74471 154.98781 40091 ft 404 kts 229°
2026-04-16 05:51 -31.78747 154.94505 40088 ft 404 kts 229°
2026-04-16 05:52 -31.83010 154.90235 40090 ft 404 kts 229°
2026-04-16 05:52 -31.87310 154.85923 40112 ft 405 kts 229°
2026-04-16 05:53 -31.91585 154.81631 40097 ft 405 kts 229°
2026-04-16 05:53 -31.95892 154.77301 40087 ft 406 kts 229°
2026-04-16 05:54 -32.00169 154.72997 40083 ft 405 kts 229°
2026-04-16 05:54 -32.04440 154.68693 40084 ft 405 kts 229°
2026-04-16 05:55 -32.08736 154.64358 40093 ft 405 kts 229°
2026-04-16 05:55 -32.13013 154.60036 40083 ft 405 kts 229°
2026-04-16 05:56 -32.17286 154.55713 40079 ft 405 kts 229°
2026-04-16 05:56 -32.21581 154.51362 40078 ft 405 kts 229°
2026-04-16 05:57 -32.25840 154.47043 40077 ft 405 kts 229°
2026-04-16 05:57 -32.30119 154.42696 40085 ft 406 kts 229°
2026-04-16 05:58 -32.34406 154.38336 40076 ft 405 kts 229°
2026-04-16 05:58 -32.38665 154.34002 40062 ft 405 kts 229°
2026-04-16 05:59 -32.42940 154.29643 40069 ft 404 kts 229°
2026-04-16 05:59 -32.47197 154.25295 40075 ft 404 kts 229°
2026-04-16 06:00 -32.51449 154.20947 40080 ft 405 kts 229°
2026-04-16 06:00 -32.55727 154.16569 40074 ft 405 kts 229°
2026-04-16 06:01 -32.59974 154.12217 40073 ft 405 kts 229°
2026-04-16 06:01 -32.64254 154.07825 40067 ft 405 kts 229°
2026-04-16 06:02 -32.70629 154.01272 40076 ft 405 kts 230°
2026-04-16 06:02 -32.74894 153.96880 40066 ft 405 kts 230°
2026-04-16 06:03 -32.79153 153.92489 40065 ft 405 kts 230°
2026-04-16 06:03 -32.83398 153.88107 40066 ft 405 kts 230°
2026-04-16 06:04 -32.87667 153.83695 40090 ft 405 kts 230°
2026-04-16 06:04 -32.91908 153.79305 40067 ft 406 kts 230°
2026-04-16 06:05 -32.96156 153.74902 40060 ft 406 kts 230°
2026-04-16 06:05 -33.00436 153.70461 40056 ft 406 kts 230°
2026-04-16 06:06 -33.04681 153.66050 40056 ft 406 kts 230°
2026-04-16 06:06 -33.08915 153.61644 40057 ft 406 kts 230°
2026-04-16 06:07 -33.13189 153.57190 40053 ft 406 kts 230°
2026-04-16 06:07 -33.17429 153.52766 40052 ft 406 kts 230°
2026-04-16 06:08 -33.21658 153.48348 40050 ft 406 kts 230°
2026-04-16 06:08 -33.25921 153.43888 40071 ft 406 kts 230°
2026-04-16 06:09 -33.30152 153.39456 40056 ft 406 kts 230°
2026-04-16 06:09 -33.34399 153.35001 40042 ft 406 kts 230°
2026-04-16 06:10 -33.38670 153.30515 40045 ft 406 kts 230°
2026-04-16 06:10 -33.42905 153.26061 40042 ft 406 kts 230°
2026-04-16 06:11 -33.47142 153.21598 40058 ft 407 kts 230°
2026-04-16 06:11 -33.51380 153.17127 40047 ft 407 kts 230°
2026-04-16 06:12 -33.55645 153.12624 40029 ft 407 kts 230°
2026-04-16 06:12 -33.59877 153.08149 40038 ft 406 kts 230°
2026-04-16 06:13 -33.64113 153.03663 40039 ft 406 kts 230°
2026-04-16 06:13 -33.68352 152.99171 40036 ft 400 kts 231°
2026-04-16 06:14 -33.72432 152.94851 40039 ft 392 kts 231°
2026-04-16 06:14 -33.76538 152.90467 40042 ft 399 kts 231°
2026-04-16 06:15 -33.80687 152.86052 39555 ft 393 kts 231°
2026-04-16 06:15 -33.82704 152.83907 39001 ft 390 kts 231°
2026-04-16 06:15 -33.84736 152.81741 38230 ft 390 kts 231°
2026-04-16 06:16 -33.86776 152.79560 37404 ft 390 kts 231°
2026-04-16 06:16 -33.88785 152.77411 36600 ft 391 kts 231°
2026-04-16 06:16 -33.90831 152.75221 35769 ft 393 kts 231°
2026-04-16 06:16 -33.92899 152.73006 34843 ft 399 kts 230°
2026-04-16 06:17 -33.94975 152.70777 33883 ft 412 kts 230°
2026-04-16 06:17 -33.97169 152.68420 32722 ft 428 kts 229°
2026-04-16 06:17 -33.99441 152.65988 31586 ft 438 kts 228°
2026-04-16 06:17 -34.01702 152.63571 30700 ft 439 kts 227°
2026-04-16 06:18 -34.03966 152.61121 29799 ft 429 kts 230°
2026-04-16 06:18 -34.05745 152.58314 28842 ft 415 kts 245°
2026-04-16 06:18 -34.06808 152.55106 28012 ft 406 kts 255°
2026-04-16 06:18 -34.07443 152.51832 27141 ft 402 kts 262°
2026-04-16 06:19 -34.07579 152.48500 26290 ft 395 kts 274°
2026-04-16 06:19 -34.07254 152.45213 25487 ft 392 kts 276°
2026-04-16 06:19 -34.06910 152.41987 24696 ft 390 kts 276°
2026-04-16 06:19 -34.06573 152.38740 23885 ft 389 kts 275°
2026-04-16 06:20 -34.06247 152.35483 22972 ft 389 kts 275°
2026-04-16 06:20 -34.05935 152.32280 22154 ft 386 kts 275°
2026-04-16 06:20 -34.05631 152.29092 21380 ft 383 kts 275°
2026-04-16 06:20 -34.05328 152.25906 20626 ft 380 kts 275°
2026-04-16 06:21 -34.05028 152.22734 19899 ft 377 kts 275°
2026-04-16 06:21 -34.04732 152.19603 19197 ft 375 kts 275°
2026-04-16 06:21 -34.04438 152.16511 18508 ft 373 kts 276°
2026-04-16 06:21 -34.04141 152.13389 17733 ft 372 kts 276°
2026-04-16 06:22 -34.03845 152.10295 17003 ft 370 kts 276°
2026-04-16 06:22 -34.03550 152.07223 16319 ft 367 kts 276°
2026-04-16 06:22 -34.03254 152.04207 15649 ft 365 kts 276°
2026-04-16 06:22 -34.02945 152.01164 15015 ft 363 kts 276°
2026-04-16 06:23 -34.02635 151.98138 14379 ft 361 kts 276°
2026-04-16 06:23 -34.02331 151.95163 13732 ft 360 kts 276°
2026-04-16 06:23 -34.02024 151.92166 13038 ft 356 kts 276°
2026-04-16 06:23 -34.01728 151.89274 12389 ft 335 kts 276°
2026-04-16 06:24 -34.01452 151.86583 11813 ft 318 kts 276°
2026-04-16 06:24 -34.01185 151.83978 11274 ft 308 kts 276°
2026-04-16 06:24 -34.00923 151.81422 10912 ft 306 kts 276°
2026-04-16 06:24 -34.00668 151.78954 10747 ft 290 kts 276°
2026-04-16 06:25 -34.00427 151.76625 10610 ft 267 kts 276°
2026-04-16 06:25 -34.00234 151.74494 10402 ft 246 kts 269°
2026-04-16 06:25 -34.00653 151.72587 10137 ft 232 kts 246°
2026-04-16 06:25 -34.01306 151.70828 9864 ft 227 kts 249°
2026-04-16 06:26 -34.01923 151.69037 9627 ft 242 kts 249°
2026-04-16 06:26 -34.02589 151.67085 9305 ft 256 kts 249°
2026-04-16 06:26 -34.03271 151.65079 8975 ft 257 kts 249°
2026-04-16 06:26 -34.03941 151.63107 8649 ft 256 kts 249°
2026-04-16 06:27 -34.04614 151.61119 8344 ft 254 kts 249°
2026-04-16 06:27 -34.05280 151.59148 8038 ft 252 kts 249°
2026-04-16 06:27 -34.05930 151.57222 7751 ft 250 kts 249°
2026-04-16 06:27 -34.06586 151.55276 7454 ft 249 kts 249°
2026-04-16 06:28 -34.07236 151.53344 7164 ft 247 kts 249°
2026-04-16 06:28 -34.08059 151.51562 6858 ft 243 kts 230°
2026-04-16 06:28 -34.09305 151.50230 6607 ft 242 kts 223°
2026-04-16 06:28 -34.10607 151.48939 6342 ft 240 kts 223°
2026-04-16 06:29 -34.11891 151.47662 6102 ft 237 kts 223°
2026-04-16 06:29 -34.13179 151.46380 5881 ft 244 kts 223°
2026-04-16 06:29 -34.14496 151.45067 5635 ft 251 kts 223°
2026-04-16 06:29 -34.15857 151.43711 5427 ft 253 kts 223°
2026-04-16 06:30 -34.17199 151.42378 5224 ft 249 kts 223°
2026-04-16 06:30 -34.18520 151.41069 5130 ft 246 kts 223°
2026-04-16 06:30 -34.19846 151.39750 4947 ft 244 kts 223°
2026-04-16 06:30 -34.21155 151.38445 4799 ft 245 kts 223°
2026-04-16 06:31 -34.22464 151.37139 4788 ft 242 kts 223°
2026-04-16 06:31 -34.23761 151.35843 4654 ft 245 kts 223°
2026-04-16 06:31 -34.24810 151.34313 4626 ft 234 kts 248°
2026-04-16 06:31 -34.25046 151.32424 4601 ft 226 kts 278°
2026-04-16 06:32 -34.24422 151.30707 4395 ft 223 kts 306°
2026-04-16 06:32 -34.23371 151.29322 4160 ft 229 kts 311°
2026-04-16 06:32 -34.22236 151.27963 3911 ft 228 kts 313°
2026-04-16 06:32 -34.21116 151.26631 3685 ft 222 kts 313°
2026-04-16 06:33 -34.20047 151.25366 3602 ft 213 kts 313°
2026-04-16 06:33 -34.18912 151.24237 3506 ft 209 kts 329°
2026-04-16 06:33 -34.17573 151.23689 3477 ft 195 kts 339°
2026-04-16 06:33 -34.16278 151.23281 3369 ft 193 kts 342°
2026-04-16 06:34 -34.14985 151.22918 3298 ft 187 kts 343°
2026-04-16 06:34 -34.13728 151.22583 3203 ft 186 kts 343°
2026-04-16 06:34 -34.12462 151.22249 3121 ft 187 kts 345°
2026-04-16 06:34 -34.11181 151.21914 2921 ft 186 kts 344°
2026-04-16 06:35 -34.09957 151.21596 2685 ft 178 kts 344°
2026-04-16 06:35 -34.08757 151.21282 2456 ft 176 kts 345°
2026-04-16 06:35 -34.07588 151.20977 2228 ft 166 kts 345°
2026-04-16 06:35 -34.06462 151.20682 2026 ft 166 kts 347°
2026-04-16 06:36 -34.05383 151.20402 1800 ft 151 kts 346°
2026-04-16 06:36 -34.04401 151.20145 1608 ft 139 kts 347°
2026-04-16 06:36 -34.03466 151.19900 1443 ft 145 kts 347°
2026-04-16 06:36 -34.02470 151.19640 1252 ft 147 kts 348°
2026-04-16 06:37 -34.01494 151.19386 1046 ft 139 kts 349°
2026-04-16 06:37 -34.00581 151.19120 958 ft 132 kts 348°
2026-04-16 06:37 -33.99647 151.18864 845 ft 145 kts 351°
2026-04-16 06:37 -33.98653 151.18620 636 ft 142 kts 352°
2026-04-16 06:38 -33.98016 151.18459 448 ft 139 kts 351°
2026-04-16 06:38 -33.97073 151.18216 239 ft 140 kts 353°
2026-04-16 06:38 -33.95788 151.17899 32 ft 136 kts 351°
2026-04-16 06:38 -33.95229 151.17753 34 ft 106 kts 348°
2026-04-16 06:39 -33.94688 151.17611 34 ft 53 kts 346°
2026-04-16 06:39 -33.94449 151.17483 33 ft 34 kts 327°
2026-04-16 06:39 -33.94337 151.17366 35 ft 18 kts 319°
2026-04-16 06:39 -33.94234 151.17294 34 ft 17 kts 346°
2026-04-16 06:40 -33.94118 151.17262 33 ft 17 kts 347°
2026-04-16 06:40 -33.94002 151.17230 34 ft 17 kts 337°
2026-04-16 06:40 -33.93995 151.17120 34 ft 15 kts 253°
2026-04-16 06:40 -33.94016 151.17032 34 ft 8 kts 254°
2026-04-16 06:41 -33.94033 151.16964 34 ft 11 kts 253°
2026-04-16 06:41 -33.94059 151.16841 34 ft 13 kts 272°
2026-04-16 06:41 -33.93988 151.16794 35 ft 15 kts 344°
2026-04-16 06:41 -33.93884 151.16759 35 ft 14 kts 345°
2026-04-16 06:42 -33.93814 151.16730 35 ft 8 kts 318°
2026-04-16 06:42 -33.93816 151.16670 35 ft 6 kts 252°
2026-04-16 06:42 -33.93823 151.16642 35 ft 1 kts 254°
2026-04-16 06:42 -33.93826 151.16629 35 ft 1 kts 254°
2026-04-16 06:43 -33.93827 151.16627 35 ft 0 kts 254°